Time,TemperatureF,DewpointF,PressureIn,WindDirection,WindDirectionDegrees,WindSpeedMPH,WindSpeedGustMPH,Humidity,HourlyPrecipIn,Conditions,Clouds,dailyrainin,SolarRadiationWatts/m^2,SoftwareType,DateUTC
2013-05-26 00:01:00,40.5,37.5,29.89,North,5,3.0,15.0,89,0.05,,,0.00,0.00,VWS V14.00,2013-05-26 04:01:00,
2013-05-26 00:06:00,40.4,37.7,29.89,NE,44,15.0,15.0,90,0.04,,,0.00,0.00,VWS V14.00,2013-05-26 04:06:00,
2013-05-26 00:11:00,40.3,37.6,29.88,North,350,10.0,10.0,90,0.04,,,0.00,0.00,VWS V14.00,2013-05-26 04:11:00,
2013-05-26 00:16:00,40.3,37.6,29.88,NNE,21,4.0,22.0,90,0.04,,,0.00,0.00,VWS V14.00,2013-05-26 04:16:00,
2013-05-26 00:21:00,40.2,37.5,29.87,North,360,7.0,11.0,90,0.04,,,0.00,0.00,VWS V14.00,2013-05-26 04:21:00,
2013-05-26 00:26:00,40.2,37.5,29.88,NNE,30,7.0,12.0,90,0.05,,,0.01,0.00,VWS V14.00,2013-05-26 04:26:00,
2013-05-26 00:31:00,40.3,37.6,29.88,NNW,344,12.0,12.0,90,0.05,,,0.01,0.00,VWS V14.00,2013-05-26 04:31:00,
2013-05-26 00:36:00,40.4,37.7,29.88,North,350,9.0,11.0,90,0.04,,,0.01,0.00,VWS V14.00,2013-05-26 04:36:00,
2013-05-26 00:41:00,40.4,37.7,29.88,NNW,347,12.0,14.0,90,0.04,,,0.02,0.00,VWS V14.00,2013-05-26 04:41:00,
2013-05-26 00:46:00,40.4,37.7,29.88,NNE,17,13.0,19.0,90,0.04,,,0.02,0.00,VWS V14.00,2013-05-26 04:46:00,
2013-05-26 00:51:00,40.4,37.7,29.88,North,5,4.0,12.0,90,0.03,,,0.02,0.00,VWS V14.00,2013-05-26 04:51:00,
2013-05-26 00:56:00,40.4,37.7,29.88,North,355,11.0,13.0,90,0.03,,,0.02,0.00,VWS V14.00,2013-05-26 04:56:00,
2013-05-26 01:01:00,40.4,37.7,29.87,NNW,337,11.0,13.0,90,0.02,,,0.02,0.00,VWS V14.00,2013-05-26 05:01:00,
2013-05-26 01:06:00,40.4,37.7,29.87,NNE,31,7.0,15.0,90,0.02,,,0.02,0.00,VWS V14.00,2013-05-26 05:06:00,
2013-05-26 01:11:00,40.4,37.7,29.87,NNW,337,13.0,13.0,90,0.03,,,0.03,0.00,VWS V14.00,2013-05-26 05:11:00,
2013-05-26 01:16:00,40.4,37.7,29.87,NNW,345,7.0,10.0,90,0.03,,,0.03,0.00,VWS V14.00,2013-05-26 05:16:00,
2013-05-26 01:21:00,40.4,37.7,29.86,NNW,343,19.0,19.0,90,0.03,,,0.03,0.00,VWS V14.00,2013-05-26 05:21:00,
2013-05-26 01:26:00,40.4,37.7,29.86,NNE,13,5.0,15.0,90,0.02,,,0.03,0.00,VWS V14.00,2013-05-26 05:26:00,
2013-05-26 01:31:00,40.5,37.8,29.86,North,350,5.0,9.0,90,0.02,,,0.03,0.00,VWS V14.00,2013-05-26 05:31:00,
2013-05-26 01:36:00,40.5,37.8,29.86,North,355,2.0,8.0,90,0.02,,,0.03,0.00,VWS V14.00,2013-05-26 05:36:00,
2013-05-26 01:41:00,40.5,37.8,29.86,North,9,8.0,11.0,90,0.02,,,0.04,0.00,VWS V14.00,2013-05-26 05:41:00,
2013-05-26 01:46:00,40.4,37.7,29.85,NNW,345,12.0,13.0,90,0.02,,,0.04,0.00,VWS V14.00,2013-05-26 05:46:00,
2013-05-26 01:51:00,40.4,37.7,29.86,NNW,343,12.0,12.0,90,0.02,,,0.04,0.00,VWS V14.00,2013-05-26 05:51:00,
2013-05-26 01:56:00,40.4,37.7,29.85,North,355,8.0,17.0,90,0.02,,,0.04,0.00,VWS V14.00,2013-05-26 05:56:00,
2013-05-26 02:01:00,40.4,37.7,29.85,North,355,2.0,6.0,90,0.02,,,0.04,0.00,VWS V14.00,2013-05-26 06:01:00,
2013-05-26 02:06:00,40.4,37.7,29.85,NW,322,12.0,15.0,90,0.02,,,0.04,0.00,VWS V14.00,2013-05-26 06:06:00,
2013-05-26 02:11:00,40.4,37.7,29.85,NNW,339,10.0,15.0,90,0.01,,,0.04,0.00,VWS V14.00,2013-05-26 06:11:00,
2013-05-26 02:16:00,40.4,37.7,29.85,NNW,340,6.0,8.0,90,0.01,,,0.04,0.00,VWS V14.00,2013-05-26 06:16:00,
2013-05-26 02:21:00,40.4,37.7,29.85,WNW,301,6.0,9.0,90,0.01,,,0.04,0.00,VWS V14.00,2013-05-26 06:21:00,
2013-05-26 02:26:00,40.4,37.7,29.85,North,10,6.0,11.0,90,0.01,,,0.04,0.00,VWS V14.00,2013-05-26 06:26:00,
2013-05-26 02:31:00,40.4,37.7,29.85,North,11,6.0,9.0,90,0.02,,,0.05,0.00,VWS V14.00,2013-05-26 06:31:00,
2013-05-26 02:36:00,40.4,37.7,29.85,North,355,7.0,12.0,90,0.02,,,0.05,0.00,VWS V14.00,2013-05-26 06:36:00,
2013-05-26 02:41:00,40.4,37.7,29.85,NNW,331,7.0,12.0,90,0.01,,,0.05,0.00,VWS V14.00,2013-05-26 06:41:00,
2013-05-26 02:46:00,40.4,37.7,29.84,NNW,330,9.0,15.0,90,0.01,,,0.05,0.00,VWS V14.00,2013-05-26 06:46:00,
2013-05-26 02:51:00,40.4,37.7,29.84,NNW,333,9.0,18.0,90,0.01,,,0.05,0.00,VWS V14.00,2013-05-26 06:51:00,
2013-05-26 02:56:00,40.4,37.7,29.84,NNW,331,15.0,15.0,90,0.01,,,0.05,0.00,VWS V14.00,2013-05-26 06:56:00,
2013-05-26 03:01:00,40.4,37.7,29.84,NNE,26,5.0,14.0,90,0.01,,,0.05,0.00,VWS V14.00,2013-05-26 07:01:00,
2013-05-26 03:06:00,40.5,37.8,29.84,NNW,344,3.0,11.0,90,0.01,,,0.05,0.00,VWS V14.00,2013-05-26 07:06:00,
2013-05-26 03:11:00,40.5,37.8,29.84,NNW,346,10.0,15.0,90,0.01,,,0.05,0.00,VWS V14.00,2013-05-26 07:11:00,
2013-05-26 03:16:00,40.6,37.9,29.84,NNW,336,4.0,14.0,90,0.01,,,0.05,0.00,VWS V14.00,2013-05-26 07:16:00,
2013-05-26 03:21:00,40.6,37.9,29.84,NNW,340,7.0,15.0,90,0.01,,,0.05,0.00,VWS V14.00,2013-05-26 07:21:00,
2013-05-26 03:26:00,40.7,38.0,29.84,NNW,342,11.0,11.0,90,0.01,,,0.05,0.00,VWS V14.00,2013-05-26 07:26:00,
2013-05-26 03:31:00,40.7,38.0,29.84,NW,323,4.0,6.0,90,0.00,,,0.05,0.00,VWS V14.00,2013-05-26 07:31:00,
2013-05-26 03:36:00,40.7,38.0,29.84,NNW,344,5.0,14.0,90,0.00,,,0.05,0.00,VWS V14.00,2013-05-26 07:36:00,
2013-05-26 03:41:00,40.7,38.0,29.84,North,5,8.0,12.0,90,0.01,,,0.06,0.00,VWS V14.00,2013-05-26 07:41:00,
2013-05-26 03:46:00,40.7,38.0,29.84,North,355,7.0,11.0,90,0.01,,,0.06,0.00,VWS V14.00,2013-05-26 07:46:00,
2013-05-26 03:51:00,40.7,38.0,29.84,North,5,5.0,8.0,90,0.01,,,0.06,0.00,VWS V14.00,2013-05-26 07:51:00,
2013-05-26 03:56:00,40.7,38.0,29.84,NNW,336,14.0,21.0,90,0.01,,,0.06,0.00,VWS V14.00,2013-05-26 07:56:00,
2013-05-26 04:01:00,40.6,37.9,29.84,ENE,69,7.0,9.0,90,0.01,,,0.06,0.00,VWS V14.00,2013-05-26 08:01:00,
2013-05-26 04:06:00,40.7,38.0,29.84,NW,321,5.0,11.0,90,0.01,,,0.06,0.00,VWS V14.00,2013-05-26 08:06:00,
2013-05-26 04:11:00,40.7,38.0,29.84,NNE,31,6.0,15.0,90,0.01,,,0.06,0.00,VWS V14.00,2013-05-26 08:11:00,
2013-05-26 04:16:00,40.7,38.0,29.85,North,355,6.0,14.0,90,0.01,,,0.06,0.00,VWS V14.00,2013-05-26 08:16:00,
2013-05-26 04:21:00,40.7,38.0,29.84,NE,36,4.0,5.0,90,0.01,,,0.06,0.00,VWS V14.00,2013-05-26 08:21:00,
2013-05-26 04:26:00,40.7,38.0,29.84,North,5,6.0,11.0,90,0.01,,,0.06,0.00,VWS V14.00,2013-05-26 08:26:00,
2013-05-26 04:31:00,40.7,38.0,29.84,NW,318,6.0,12.0,90,0.01,,,0.06,0.00,VWS V14.00,2013-05-26 08:31:00,
2013-05-26 04:36:00,40.7,38.0,29.84,NNW,346,5.0,8.0,90,0.01,,,0.06,0.00,VWS V14.00,2013-05-26 08:36:00,
2013-05-26 04:41:00,40.6,37.9,29.84,NNW,348,11.0,16.0,90,0.00,,,0.06,0.00,VWS V14.00,2013-05-26 08:41:00,
2013-05-26 04:46:00,40.6,37.9,29.84,NNW,345,14.0,15.0,90,0.00,,,0.06,0.00,VWS V14.00,2013-05-26 08:46:00,
2013-05-26 04:51:00,40.5,37.8,29.85,North,5,7.0,16.0,90,0.00,,,0.06,0.00,VWS V14.00,2013-05-26 08:51:00,
2013-05-26 04:56:00,40.5,37.8,29.85,North,355,6.0,12.0,90,0.00,,,0.06,0.00,VWS V14.00,2013-05-26 08:56:00,
2013-05-26 05:01:00,40.5,37.8,29.85,NE,36,5.0,7.0,90,0.00,,,0.06,0.00,VWS V14.00,2013-05-26 09:01:00,
2013-05-26 05:06:00,40.5,37.8,29.85,NNW,348,3.0,10.0,90,0.00,,,0.06,0.00,VWS V14.00,2013-05-26 09:06:00,
2013-05-26 05:11:00,40.5,37.8,29.85,NNE,20,5.0,6.0,90,0.00,,,0.06,0.00,VWS V14.00,2013-05-26 09:11:00,
2013-05-26 05:16:00,40.4,37.7,29.85,NNW,334,7.0,12.0,90,0.00,,,0.06,0.00,VWS V14.00,2013-05-26 09:16:00,
2013-05-26 05:21:00,40.4,37.7,29.85,NNW,342,6.0,11.0,90,0.00,,,0.06,5.00,VWS V14.00,2013-05-26 09:21:00,
2013-05-26 05:26:00,40.5,37.8,29.85,NNE,21,6.0,13.0,90,0.00,,,0.06,9.00,VWS V14.00,2013-05-26 09:26:00,
2013-05-26 05:31:00,40.5,37.8,29.85,NNW,345,8.0,8.0,90,0.00,,,0.06,12.00,VWS V14.00,2013-05-26 09:31:00,
2013-05-26 05:36:00,40.6,37.9,29.85,North,360,14.0,20.0,90,0.00,,,0.06,16.00,VWS V14.00,2013-05-26 09:36:00,
2013-05-26 05:41:00,40.7,38.0,29.85,NE,38,13.0,15.0,90,0.00,,,0.06,9.00,VWS V14.00,2013-05-26 09:41:00,
2013-05-26 05:46:00,40.7,37.7,29.85,North,5,10.0,11.0,89,0.00,,,0.06,7.00,VWS V14.00,2013-05-26 09:46:00,
2013-05-26 05:51:00,40.9,37.9,29.85,NNE,19,11.0,16.0,89,0.00,,,0.06,9.00,VWS V14.00,2013-05-26 09:51:00,
2013-05-26 05:56:00,40.9,37.9,29.85,North,355,13.0,17.0,89,0.00,,,0.06,12.00,VWS V14.00,2013-05-26 09:56:00,
2013-05-26 06:01:00,40.9,37.9,29.86,NNW,348,9.0,13.0,89,0.00,,,0.06,12.00,VWS V14.00,2013-05-26 10:01:00,
2013-05-26 06:06:00,40.9,37.9,29.86,North,355,4.0,11.0,89,0.00,,,0.06,11.00,VWS V14.00,2013-05-26 10:06:00,
2013-05-26 06:11:00,40.9,37.9,29.85,NNE,22,8.0,11.0,89,0.00,,,0.06,26.00,VWS V14.00,2013-05-26 10:11:00,
2013-05-26 06:16:00,40.9,37.9,29.86,North,5,16.0,18.0,89,0.00,,,0.06,26.00,VWS V14.00,2013-05-26 10:16:00,
2013-05-26 06:21:00,41.0,38.0,29.86,NNE,26,5.0,15.0,89,0.00,,,0.06,28.00,VWS V14.00,2013-05-26 10:21:00,
2013-05-26 06:26:00,41.0,38.0,29.86,NE,34,13.0,14.0,89,0.00,,,0.06,32.00,VWS V14.00,2013-05-26 10:26:00,
2013-05-26 06:31:00,41.0,38.0,29.86,North,5,12.0,16.0,89,0.00,,,0.06,46.00,VWS V14.00,2013-05-26 10:31:00,
2013-05-26 06:36:00,41.0,38.0,29.86,NNE,17,10.0,15.0,89,0.00,,,0.06,40.00,VWS V14.00,2013-05-26 10:36:00,
2013-05-26 06:41:00,41.1,38.1,29.86,North,350,3.0,7.0,89,0.00,,,0.06,46.00,VWS V14.00,2013-05-26 10:41:00,
2013-05-26 06:46:00,41.2,38.2,29.86,North,5,4.0,8.0,89,0.00,,,0.06,72.00,VWS V14.00,2013-05-26 10:46:00,
2013-05-26 06:51:00,41.3,38.3,29.86,NNW,339,9.0,9.0,89,0.00,,,0.06,79.00,VWS V14.00,2013-05-26 10:51:00,
2013-05-26 06:56:00,41.4,38.4,29.87,NNW,342,5.0,10.0,89,0.00,,,0.06,81.00,VWS V14.00,2013-05-26 10:56:00,
2013-05-26 07:01:00,41.5,38.5,29.86,NNW,335,5.0,7.0,89,0.00,,,0.06,100.00,VWS V14.00,2013-05-26 11:01:00,
2013-05-26 07:06:00,41.6,38.6,29.87,North,349,2.0,8.0,89,0.00,,,0.06,155.00,VWS V14.00,2013-05-26 11:06:00,
2013-05-26 07:11:00,41.8,38.8,29.87,NNE,13,6.0,10.0,89,0.00,,,0.06,139.00,VWS V14.00,2013-05-26 11:11:00,
2013-05-26 07:16:00,41.9,38.9,29.87,NW,325,11.0,15.0,89,0.00,,,0.06,142.00,VWS V14.00,2013-05-26 11:16:00,
2013-05-26 07:21:00,42.0,39.0,29.87,North,355,4.0,8.0,89,0.00,,,0.06,162.00,VWS V14.00,2013-05-26 11:21:00,
2013-05-26 07:26:00,42.2,39.2,29.87,North,5,9.0,9.0,89,0.00,,,0.06,144.00,VWS V14.00,2013-05-26 11:26:00,
2013-05-26 07:31:00,42.3,39.3,29.88,NNW,345,4.0,7.0,89,0.00,,,0.06,127.00,VWS V14.00,2013-05-26 11:31:00,
2013-05-26 07:36:00,42.4,39.4,29.88,North,5,2.0,6.0,89,0.00,,,0.06,116.00,VWS V14.00,2013-05-26 11:36:00,
2013-05-26 07:41:00,42.4,39.4,29.88,North,355,3.0,9.0,89,0.00,,,0.06,93.00,VWS V14.00,2013-05-26 11:41:00,
2013-05-26 07:46:00,42.4,39.1,29.89,NE,38,4.0,6.0,88,0.00,,,0.06,95.00,VWS V14.00,2013-05-26 11:46:00,
2013-05-26 07:51:00,42.4,39.1,29.89,NE,40,5.0,7.0,88,0.00,,,0.06,86.00,VWS V14.00,2013-05-26 11:51:00,
2013-05-26 07:56:00,42.3,39.0,29.89,NNW,343,4.0,8.0,88,0.00,,,0.06,95.00,VWS V14.00,2013-05-26 11:56:00,
2013-05-26 08:01:00,42.3,39.0,29.88,North,351,1.0,2.0,88,0.00,,,0.06,93.00,VWS V14.00,2013-05-26 12:01:00,
2013-05-26 08:06:00,42.3,39.0,29.89,NNW,335,6.0,9.0,88,0.00,,,0.06,130.00,VWS V14.00,2013-05-26 12:06:00,
2013-05-26 08:11:00,42.2,38.9,29.89,NE,40,6.0,10.0,88,0.00,,,0.06,153.00,VWS V14.00,2013-05-26 12:11:00,
2013-05-26 08:16:00,42.2,38.9,29.89,North,10,5.0,12.0,88,0.00,,,0.06,223.00,VWS V14.00,2013-05-26 12:16:00,
2013-05-26 08:21:00,42.4,39.4,29.89,North,360,3.0,10.0,89,0.00,,,0.06,276.00,VWS V14.00,2013-05-26 12:21:00,
2013-05-26 08:26:00,42.6,39.6,29.89,North,360,4.0,6.0,89,0.00,,,0.06,239.00,VWS V14.00,2013-05-26 12:26:00,
2013-05-26 08:31:00,43.0,40.0,29.89,North,350,3.0,7.0,89,0.00,,,0.06,427.00,VWS V14.00,2013-05-26 12:31:00,
2013-05-26 08:36:00,43.4,40.7,29.89,North,355,6.0,13.0,90,0.00,,,0.06,408.00,VWS V14.00,2013-05-26 12:36:00,
2013-05-26 08:41:00,43.6,40.3,29.89,NNW,344,13.0,13.0,88,0.00,,,0.06,441.00,VWS V14.00,2013-05-26 12:41:00,
2013-05-26 08:46:00,43.9,40.9,29.89,North,5,7.0,10.0,89,0.00,,,0.06,439.00,VWS V14.00,2013-05-26 12:46:00,
2013-05-26 08:51:00,44.3,41.3,29.90,NNW,338,8.0,11.0,89,0.01,,,0.07,373.00,VWS V14.00,2013-05-26 12:51:00,
2013-05-26 08:56:00,44.6,41.3,29.90,NE,34,14.0,14.0,88,0.01,,,0.07,334.00,VWS V14.00,2013-05-26 12:56:00,
2013-05-26 09:01:00,44.7,41.4,29.90,NNW,338,12.0,14.0,88,0.01,,,0.07,513.00,VWS V14.00,2013-05-26 13:01:00,
2013-05-26 09:06:00,44.9,41.6,29.89,NNE,13,3.0,8.0,88,0.01,,,0.07,355.00,VWS V14.00,2013-05-26 13:06:00,
2013-05-26 09:11:00,45.1,41.5,29.90,NE,35,6.0,15.0,87,0.01,,,0.07,345.00,VWS V14.00,2013-05-26 13:11:00,
2013-05-26 09:17:00,45.0,41.1,29.90,NNW,347,8.0,20.0,86,0.01,,,0.07,339.00,VWS V14.00,2013-05-26 13:17:00,
2013-05-26 09:22:00,44.9,40.7,29.90,NE,36,10.0,15.0,85,0.01,,,0.07,399.00,VWS V14.00,2013-05-26 13:22:00,
2013-05-26 09:27:00,44.9,40.7,29.90,NNE,17,10.0,16.0,85,0.01,,,0.07,427.00,VWS V14.00,2013-05-26 13:27:00,
2013-05-26 09:32:00,44.8,40.3,29.91,NNW,345,4.0,10.0,84,0.01,,,0.07,360.00,VWS V14.00,2013-05-26 13:32:00,
2013-05-26 09:37:00,44.9,40.4,29.91,NE,36,7.0,13.0,84,0.01,,,0.07,374.00,VWS V14.00,2013-05-26 13:37:00,
2013-05-26 09:42:00,44.9,40.4,29.91,North,5,7.0,11.0,84,0.01,,,0.07,302.00,VWS V14.00,2013-05-26 13:42:00,
2013-05-26 09:47:00,44.8,40.0,29.91,NNE,21,13.0,16.0,83,0.01,,,0.07,295.00,VWS V14.00,2013-05-26 13:47:00,
2013-05-26 09:52:00,44.7,40.2,29.92,NE,39,9.0,9.0,84,0.00,,,0.07,338.00,VWS V14.00,2013-05-26 13:52:00,
2013-05-26 09:57:00,44.7,40.5,29.92,NW,321,5.0,10.0,85,0.00,,,0.07,281.00,VWS V14.00,2013-05-26 13:57:00,
2013-05-26 10:02:00,44.9,40.7,29.92,NNE,18,9.0,12.0,85,0.00,,,0.07,383.00,VWS V14.00,2013-05-26 14:02:00,
2013-05-26 10:07:00,44.7,40.2,29.91,NW,321,10.0,10.0,84,0.00,,,0.07,313.00,VWS V14.00,2013-05-26 14:07:00,
2013-05-26 10:12:00,44.8,40.3,29.92,NE,46,8.0,13.0,84,0.00,,,0.07,338.00,VWS V14.00,2013-05-26 14:12:00,
2013-05-26 10:17:00,44.8,40.3,29.92,North,355,4.0,14.0,84,0.00,,,0.07,304.00,VWS V14.00,2013-05-26 14:17:00,
2013-05-26 10:22:00,44.8,40.3,29.92,NNE,17,4.0,8.0,84,0.00,,,0.07,388.00,VWS V14.00,2013-05-26 14:22:00,
2013-05-26 10:27:00,45.0,40.8,29.91,North,360,7.0,13.0,85,0.00,,,0.07,387.00,VWS V14.00,2013-05-26 14:27:00,
2013-05-26 10:32:00,45.2,40.7,29.92,NNW,329,11.0,13.0,84,0.00,,,0.07,346.00,VWS V14.00,2013-05-26 14:32:00,
2013-05-26 10:37:00,45.4,40.9,29.92,NNE,22,13.0,13.0,84,0.00,,,0.07,313.00,VWS V14.00,2013-05-26 14:37:00,
2013-05-26 10:42:00,45.4,40.5,29.92,NNW,342,4.0,11.0,83,0.00,,,0.07,297.00,VWS V14.00,2013-05-26 14:42:00,
2013-05-26 10:47:00,45.5,40.7,29.92,NNW,346,4.0,5.0,83,0.00,,,0.07,343.00,VWS V14.00,2013-05-26 14:47:00,
2013-05-26 10:52:00,45.6,40.7,29.91,NNW,337,5.0,10.0,83,0.00,,,0.07,343.00,VWS V14.00,2013-05-26 14:52:00,
2013-05-26 10:57:00,45.8,40.9,29.92,NW,314,5.0,8.0,83,0.00,,,0.07,315.00,VWS V14.00,2013-05-26 14:57:00,
2013-05-26 11:02:00,45.8,40.6,29.92,NNE,14,4.0,10.0,82,0.00,,,0.07,381.00,VWS V14.00,2013-05-26 15:02:00,
2013-05-26 11:07:00,46.0,41.1,29.92,North,9,7.0,8.0,83,0.00,,,0.07,367.00,VWS V14.00,2013-05-26 15:07:00,
2013-05-26 11:12:00,46.0,40.8,29.92,NE,51,5.0,7.0,82,0.00,,,0.07,281.00,VWS V14.00,2013-05-26 15:12:00,
2013-05-26 11:17:00,46.2,41.3,29.92,NE,36,8.0,8.0,83,0.00,,,0.07,264.00,VWS V14.00,2013-05-26 15:17:00,
2013-05-26 11:22:00,46.4,41.5,29.91,NNE,13,2.0,8.0,83,0.00,,,0.07,534.00,VWS V14.00,2013-05-26 15:22:00,
2013-05-26 11:27:00,46.5,41.9,29.92,NW,326,7.0,7.0,84,0.00,,,0.07,459.00,VWS V14.00,2013-05-26 15:27:00,
2013-05-26 11:32:00,46.8,42.2,29.92,North,5,4.0,10.0,84,0.00,,,0.07,399.00,VWS V14.00,2013-05-26 15:32:00,
2013-05-26 11:37:00,46.9,42.3,29.92,NNW,333,3.0,7.0,84,0.00,,,0.07,360.00,VWS V14.00,2013-05-26 15:37:00,
2013-05-26 11:42:00,46.8,41.9,29.92,North,5,3.0,6.0,83,0.01,,,0.08,251.00,VWS V14.00,2013-05-26 15:42:00,
2013-05-26 11:47:00,46.7,41.8,29.93,NNW,334,2.0,9.0,83,0.01,,,0.08,306.00,VWS V14.00,2013-05-26 15:47:00,
2013-05-26 11:52:00,46.6,42.0,29.93,NE,40,1.0,4.0,84,0.02,,,0.09,197.00,VWS V14.00,2013-05-26 15:52:00,
2013-05-26 11:57:00,46.4,42.1,29.93,NE,48,0.0,13.0,85,0.03,,,0.10,207.00,VWS V14.00,2013-05-26 15:57:00,
2013-05-26 12:02:00,45.8,41.5,29.93,NE,41,3.0,9.0,85,0.04,,,0.11,450.00,VWS V14.00,2013-05-26 16:02:00,
2013-05-26 12:07:00,45.6,42.0,29.93,NE,34,7.0,8.0,87,0.04,,,0.11,350.00,VWS V14.00,2013-05-26 16:07:00,
2013-05-26 12:12:00,45.5,41.9,29.94,NNE,17,5.0,9.0,87,0.04,,,0.11,376.00,VWS V14.00,2013-05-26 16:12:00,
2013-05-26 12:17:00,45.5,41.9,29.94,ENE,65,4.0,8.0,87,0.04,,,0.11,278.00,VWS V14.00,2013-05-26 16:17:00,
2013-05-26 12:22:00,45.5,42.2,29.94,ENE,63,0.0,5.0,88,0.04,,,0.11,295.00,VWS V14.00,2013-05-26 16:22:00,
2013-05-26 12:27:00,45.5,42.2,29.94,NNW,331,4.0,7.0,88,0.04,,,0.11,265.00,VWS V14.00,2013-05-26 16:27:00,
2013-05-26 12:32:00,45.6,42.0,29.94,NNE,22,6.0,13.0,87,0.04,,,0.11,258.00,VWS V14.00,2013-05-26 16:32:00,
2013-05-26 12:37:00,45.4,41.8,29.95,North,5,2.0,6.0,87,0.05,,,0.12,287.00,VWS V14.00,2013-05-26 16:37:00,
2013-05-26 12:42:00,45.3,41.7,29.95,NE,46,1.0,7.0,87,0.04,,,0.12,311.00,VWS V14.00,2013-05-26 16:42:00,
2013-05-26 12:47:00,45.4,42.1,29.95,NNE,18,7.0,16.0,88,0.04,,,0.12,290.00,VWS V14.00,2013-05-26 16:47:00,
2013-05-26 12:52:00,45.4,41.8,29.95,North,355,12.0,14.0,87,0.04,,,0.12,304.00,VWS V14.00,2013-05-26 16:52:00,
2013-05-26 12:57:00,45.3,41.4,29.95,North,349,10.0,15.0,86,0.02,,,0.12,315.00,VWS V14.00,2013-05-26 16:57:00,
2013-05-26 13:02:00,45.3,41.4,29.96,NE,38,2.0,9.0,86,0.01,,,0.12,285.00,VWS V14.00,2013-05-26 17:02:00,
2013-05-26 13:07:00,45.5,41.6,29.96,NE,44,6.0,14.0,86,0.01,,,0.12,246.00,VWS V14.00,2013-05-26 17:07:00,
2013-05-26 13:12:00,45.4,41.5,29.96,North,349,3.0,5.0,86,0.01,,,0.12,329.00,VWS V14.00,2013-05-26 17:12:00,
2013-05-26 13:17:00,45.6,42.0,29.96,NNE,18,4.0,16.0,87,0.01,,,0.12,341.00,VWS V14.00,2013-05-26 17:17:00,
2013-05-26 13:22:00,45.6,42.0,29.96,NE,49,8.0,9.0,87,0.01,,,0.12,427.00,VWS V14.00,2013-05-26 17:22:00,
2013-05-26 13:27:00,45.6,41.7,29.96,NNW,344,6.0,8.0,86,0.02,,,0.13,517.00,VWS V14.00,2013-05-26 17:27:00,
2013-05-26 13:32:00,45.8,41.9,29.96,NE,34,3.0,9.0,86,0.02,,,0.13,529.00,VWS V14.00,2013-05-26 17:32:00,
2013-05-26 13:37:00,46.1,42.5,29.95,NE,34,5.0,15.0,87,0.02,,,0.13,533.00,VWS V14.00,2013-05-26 17:37:00,
2013-05-26 13:42:00,46.4,42.8,29.96,NE,48,4.0,7.0,87,0.01,,,0.13,441.00,VWS V14.00,2013-05-26 17:42:00,
2013-05-26 13:47:00,46.5,42.5,29.96,NE,46,7.0,9.0,86,0.01,,,0.13,390.00,VWS V14.00,2013-05-26 17:47:00,
2013-05-26 13:52:00,46.5,42.2,29.96,NE,45,7.0,10.0,85,0.01,,,0.13,406.00,VWS V14.00,2013-05-26 17:52:00,
2013-05-26 13:57:00,46.5,42.2,29.96,NNW,346,3.0,7.0,85,0.01,,,0.13,341.00,VWS V14.00,2013-05-26 17:57:00,
2013-05-26 14:02:00,46.6,42.3,29.97,NNE,17,3.0,7.0,85,0.01,,,0.13,243.00,VWS V14.00,2013-05-26 18:02:00,
2013-05-26 14:07:00,46.6,42.3,29.97,NNE,30,4.0,7.0,85,0.01,,,0.13,227.00,VWS V14.00,2013-05-26 18:07:00,
2013-05-26 14:12:00,46.7,42.7,29.97,NNE,15,0.0,6.0,86,0.02,,,0.14,232.00,VWS V14.00,2013-05-26 18:12:00,
2013-05-26 14:17:00,46.7,42.7,29.98,North,5,4.0,9.0,86,0.02,,,0.14,248.00,VWS V14.00,2013-05-26 18:17:00,
2013-05-26 14:22:00,46.5,42.5,29.98,North,350,3.0,5.0,86,0.03,,,0.15,272.00,VWS V14.00,2013-05-26 18:22:00,
2013-05-26 14:27:00,46.6,42.9,29.98,North,350,6.0,8.0,87,0.02,,,0.15,408.00,VWS V14.00,2013-05-26 18:27:00,
2013-05-26 14:32:00,46.8,43.4,29.98,NNE,18,5.0,9.0,88,0.02,,,0.15,390.00,VWS V14.00,2013-05-26 18:32:00,
2013-05-26 14:37:00,47.0,43.6,29.98,NNW,340,3.0,11.0,88,0.02,,,0.15,380.00,VWS V14.00,2013-05-26 18:37:00,
2013-05-26 14:42:00,47.2,43.8,29.98,NNW,336,4.0,6.0,88,0.02,,,0.15,410.00,VWS V14.00,2013-05-26 18:42:00,
2013-05-26 14:47:00,47.3,43.9,29.98,NNE,18,6.0,8.0,88,0.02,,,0.15,397.00,VWS V14.00,2013-05-26 18:47:00,
2013-05-26 14:52:00,47.5,43.8,29.98,NNW,346,6.0,14.0,87,0.02,,,0.15,454.00,VWS V14.00,2013-05-26 18:52:00,
2013-05-26 14:57:00,47.7,44.0,29.98,NNW,346,4.0,10.0,87,0.02,,,0.15,533.00,VWS V14.00,2013-05-26 18:57:00,
2013-05-26 15:02:00,48.1,44.4,29.99,NNW,329,9.0,10.0,87,0.02,,,0.15,436.00,VWS V14.00,2013-05-26 19:02:00,
2013-05-26 15:07:00,48.4,44.7,29.99,North,355,11.0,11.0,87,0.02,,,0.15,346.00,VWS V14.00,2013-05-26 19:07:00,
2013-05-26 15:12:00,48.4,44.1,29.99,NW,317,5.0,12.0,85,0.01,,,0.15,432.00,VWS V14.00,2013-05-26 19:12:00,
2013-05-26 15:17:00,48.5,44.2,29.99,NNW,330,1.0,9.0,85,0.01,,,0.15,359.00,VWS V14.00,2013-05-26 19:17:00,
2013-05-26 15:22:00,48.5,43.9,30.00,NNW,337,9.0,10.0,84,0.00,,,0.15,262.00,VWS V14.00,2013-05-26 19:22:00,
2013-05-26 15:27:00,48.5,43.9,30.00,NNE,19,5.0,9.0,84,0.00,,,0.15,341.00,VWS V14.00,2013-05-26 19:27:00,
2013-05-26 15:32:00,48.7,43.8,30.00,NNW,344,9.0,14.0,83,0.00,,,0.15,250.00,VWS V14.00,2013-05-26 19:32:00,
2013-05-26 15:37:00,48.6,43.4,30.00,NNW,348,8.0,9.0,82,0.00,,,0.15,130.00,VWS V14.00,2013-05-26 19:37:00,
2013-05-26 15:42:00,48.5,43.3,30.00,NNW,331,2.0,7.0,82,0.00,,,0.15,234.00,VWS V14.00,2013-05-26 19:42:00,
2013-05-26 15:47:00,48.4,43.2,30.00,NW,319,5.0,11.0,82,0.00,,,0.15,237.00,VWS V14.00,2013-05-26 19:47:00,
2013-05-26 15:52:00,48.3,43.1,30.00,NNW,329,7.0,11.0,82,0.00,,,0.15,218.00,VWS V14.00,2013-05-26 19:52:00,
2013-05-26 15:57:00,48.1,42.9,30.00,NE,38,10.0,10.0,82,0.00,,,0.15,253.00,VWS V14.00,2013-05-26 19:57:00,
2013-05-26 16:02:00,48.1,43.2,30.00,NNE,19,5.0,12.0,83,0.00,,,0.15,258.00,VWS V14.00,2013-05-26 20:02:00,
2013-05-26 16:07:00,48.1,43.2,30.01,NNE,19,4.0,9.0,83,0.00,,,0.15,185.00,VWS V14.00,2013-05-26 20:07:00,
2013-05-26 16:12:00,48.1,42.9,30.01,NNE,16,6.0,9.0,82,0.00,,,0.15,239.00,VWS V14.00,2013-05-26 20:12:00,
2013-05-26 16:17:00,48.1,43.2,30.01,NNE,20,11.0,11.0,83,0.00,,,0.15,248.00,VWS V14.00,2013-05-26 20:17:00,
2013-05-26 16:22:00,48.2,43.3,30.02,NNW,343,19.0,19.0,83,0.00,,,0.15,197.00,VWS V14.00,2013-05-26 20:22:00,
2013-05-26 16:27:00,48.1,42.9,30.02,NNE,25,6.0,9.0,82,0.00,,,0.15,146.00,VWS V14.00,2013-05-26 20:27:00,
2013-05-26 16:32:00,48.1,42.9,30.02,NNW,343,4.0,8.0,82,0.01,,,0.16,128.00,VWS V14.00,2013-05-26 20:32:00,
2013-05-26 16:37:00,48.0,43.1,30.02,North,355,3.0,6.0,83,0.01,,,0.16,97.00,VWS V14.00,2013-05-26 20:37:00,
2013-05-26 16:42:00,47.9,43.3,30.02,NNW,342,0.0,4.0,84,0.01,,,0.16,151.00,VWS V14.00,2013-05-26 20:42:00,
2013-05-26 16:47:00,47.8,43.2,30.02,NNW,338,4.0,5.0,84,0.01,,,0.16,202.00,VWS V14.00,2013-05-26 20:47:00,
2013-05-26 16:52:00,47.9,43.6,30.03,NNW,337,3.0,4.0,85,0.01,,,0.16,229.00,VWS V14.00,2013-05-26 20:52:00,
2013-05-26 16:57:00,48.0,43.7,30.03,NNW,334,6.0,11.0,85,0.01,,,0.16,165.00,VWS V14.00,2013-05-26 20:57:00,
2013-05-26 17:02:00,48.1,43.8,30.03,NNW,342,5.0,8.0,85,0.01,,,0.16,90.00,VWS V14.00,2013-05-26 21:02:00,
2013-05-26 17:07:00,48.2,43.6,30.03,NNW,331,7.0,7.0,84,0.01,,,0.16,74.00,VWS V14.00,2013-05-26 21:07:00,
2013-05-26 17:12:00,48.1,43.5,30.04,NNW,331,10.0,10.0,84,0.02,,,0.17,63.00,VWS V14.00,2013-05-26 21:12:00,
2013-05-26 17:17:00,47.8,43.2,30.05,NNE,26,5.0,8.0,84,0.03,,,0.18,81.00,VWS V14.00,2013-05-26 21:17:00,
2013-05-26 17:22:00,47.4,42.8,30.05,NNW,334,10.0,15.0,84,0.03,,,0.18,63.00,VWS V14.00,2013-05-26 21:22:00,
2013-05-26 17:27:00,47.0,42.4,30.05,North,355,7.0,14.0,84,0.03,,,0.18,79.00,VWS V14.00,2013-05-26 21:27:00,
2013-05-26 17:32:00,46.7,42.4,30.05,NNE,13,10.0,16.0,85,0.02,,,0.18,74.00,VWS V14.00,2013-05-26 21:32:00,
2013-05-26 17:37:00,46.4,41.8,30.05,NNW,342,4.0,10.0,84,0.02,,,0.18,98.00,VWS V14.00,2013-05-26 21:37:00,
2013-05-26 17:42:00,46.3,42.0,30.05,NNW,345,2.0,9.0,85,0.02,,,0.18,141.00,VWS V14.00,2013-05-26 21:42:00,
2013-05-26 17:47:00,46.3,42.0,30.05,North,5,2.0,7.0,85,0.02,,,0.18,111.00,VWS V14.00,2013-05-26 21:47:00,
2013-05-26 17:52:00,46.4,42.1,30.05,NNE,14,3.0,3.0,85,0.02,,,0.18,123.00,VWS V14.00,2013-05-26 21:52:00,
2013-05-26 17:57:00,46.4,42.1,30.05,NNW,342,1.0,5.0,85,0.02,,,0.18,146.00,VWS V14.00,2013-05-26 21:57:00,
2013-05-26 18:02:00,46.5,42.5,30.04,NNW,348,1.0,1.0,86,0.02,,,0.18,111.00,VWS V14.00,2013-05-26 22:02:00,
2013-05-26 18:07:00,46.6,42.6,30.05,North,11,2.0,2.0,86,0.02,,,0.18,93.00,VWS V14.00,2013-05-26 22:07:00,
2013-05-26 18:12:00,46.7,42.7,30.05,NNE,17,1.0,1.0,86,0.01,,,0.18,100.00,VWS V14.00,2013-05-26 22:12:00,
2013-05-26 18:17:00,46.7,42.7,30.05,NNE,18,0.0,1.0,86,0.00,,,0.18,148.00,VWS V14.00,2013-05-26 22:17:00,
2013-05-26 18:22:00,46.8,42.8,30.05,NNE,18,2.0,2.0,86,0.00,,,0.18,128.00,VWS V14.00,2013-05-26 22:22:00,
2013-05-26 18:27:00,47.0,43.0,30.05,NNE,18,0.0,1.0,86,0.00,,,0.18,120.00,VWS V14.00,2013-05-26 22:27:00,
2013-05-26 18:32:00,47.2,43.2,30.05,NNE,18,0.0,1.0,86,0.00,,,0.18,139.00,VWS V14.00,2013-05-26 22:32:00,
2013-05-26 18:37:00,47.3,43.3,30.05,NNE,18,1.0,2.0,86,0.00,,,0.18,123.00,VWS V14.00,2013-05-26 22:37:00,
2013-05-26 18:42:00,47.4,43.4,30.05,NNE,18,0.0,2.0,86,0.00,,,0.18,98.00,VWS V14.00,2013-05-26 22:42:00,
2013-05-26 18:47:00,47.5,43.5,30.05,NNE,18,0.0,0.0,86,0.00,,,0.18,88.00,VWS V14.00,2013-05-26 22:47:00,
2013-05-26 18:52:00,47.6,43.6,30.05,NNE,18,0.0,0.0,86,0.00,,,0.18,76.00,VWS V14.00,2013-05-26 22:52:00,
2013-05-26 18:57:00,47.7,43.7,30.05,NNE,18,0.0,0.0,86,0.00,,,0.18,98.00,VWS V14.00,2013-05-26 22:57:00,
2013-05-26 19:02:00,47.7,43.7,30.05,NNE,18,0.0,0.0,86,0.00,,,0.18,232.00,VWS V14.00,2013-05-26 23:02:00,
2013-05-26 19:07:00,47.9,43.9,30.05,NNE,18,0.0,2.0,86,0.00,,,0.18,195.00,VWS V14.00,2013-05-26 23:07:00,
2013-05-26 19:12:00,48.1,44.1,30.05,NNE,18,0.0,2.0,86,0.00,,,0.18,211.00,VWS V14.00,2013-05-26 23:12:00,
2013-05-26 19:17:00,48.3,44.3,30.05,NNE,18,0.0,2.0,86,0.00,,,0.18,206.00,VWS V14.00,2013-05-26 23:17:00,
2013-05-26 19:22:00,48.5,44.2,30.05,NNE,18,0.0,0.0,85,0.00,,,0.18,63.00,VWS V14.00,2013-05-26 23:22:00,
2013-05-26 19:27:00,48.6,44.3,30.05,NNE,18,0.0,1.0,85,0.00,,,0.18,39.00,VWS V14.00,2013-05-26 23:27:00,
2013-05-26 19:32:00,48.6,44.0,30.05,NNE,18,0.0,0.0,84,0.00,,,0.18,33.00,VWS V14.00,2013-05-26 23:32:00,
2013-05-26 19:37:00,48.6,43.7,30.05,NNE,18,0.0,0.0,83,0.00,,,0.18,30.00,VWS V14.00,2013-05-26 23:37:00,
2013-05-26 19:42:00,48.5,43.3,30.05,NNE,18,0.0,0.0,82,0.00,,,0.18,30.00,VWS V14.00,2013-05-26 23:42:00,
2013-05-26 19:47:00,48.3,43.1,30.05,NNE,18,0.0,0.0,82,0.00,,,0.18,25.00,VWS V14.00,2013-05-26 23:47:00,
2013-05-26 19:52:00,48.2,43.0,30.05,NNE,18,0.0,0.0,82,0.00,,,0.18,21.00,VWS V14.00,2013-05-26 23:52:00,
2013-05-26 19:57:00,48.0,42.8,30.05,NNE,18,0.0,0.0,82,0.00,,,0.18,18.00,VWS V14.00,2013-05-26 23:57:00,
2013-05-26 20:02:00,47.8,42.6,30.05,NNE,18,0.0,0.0,82,0.00,,,0.18,14.00,VWS V14.00,2013-05-27 00:02:00,
2013-05-26 20:07:00,47.5,42.3,30.05,NNE,18,0.0,0.0,82,0.00,,,0.18,12.00,VWS V14.00,2013-05-27 00:07:00,
2013-05-26 20:12:00,47.1,41.9,30.05,NNE,18,0.0,0.0,82,0.00,,,0.18,11.00,VWS V14.00,2013-05-27 00:12:00,
2013-05-26 20:17:00,46.7,41.5,30.05,NNE,18,0.0,0.0,82,0.00,,,0.18,7.00,VWS V14.00,2013-05-27 00:17:00,
2013-05-26 20:22:00,46.3,41.1,30.05,NNE,18,0.0,2.0,82,0.00,,,0.18,5.00,VWS V14.00,2013-05-27 00:22:00,
2013-05-26 20:27:00,45.8,40.9,30.05,NNE,18,0.0,1.0,83,0.00,,,0.18,0.00,VWS V14.00,2013-05-27 00:27:00,
2013-05-26 20:32:00,45.4,40.5,30.05,NNE,18,0.0,1.0,83,0.00,,,0.18,0.00,VWS V14.00,2013-05-27 00:32:00,
2013-05-26 20:37:00,45.0,40.5,30.05,NNE,18,0.0,0.0,84,0.00,,,0.18,0.00,VWS V14.00,2013-05-27 00:37:00,
2013-05-26 20:42:00,44.5,40.0,30.05,NNE,18,0.0,2.0,84,0.00,,,0.18,0.00,VWS V14.00,2013-05-27 00:42:00,
2013-05-26 20:47:00,44.0,39.8,30.05,NNE,18,0.0,2.0,85,0.00,,,0.18,0.00,VWS V14.00,2013-05-27 00:47:00,
2013-05-26 20:52:00,43.6,39.4,30.05,NNE,18,1.0,2.0,85,0.00,,,0.18,0.00,VWS V14.00,2013-05-27 00:52:00,
2013-05-26 20:57:00,43.1,39.2,30.05,NNE,18,1.0,2.0,86,0.00,,,0.18,0.00,VWS V14.00,2013-05-27 00:57:00,
2013-05-26 21:02:00,42.7,38.8,30.05,NNE,18,1.0,2.0,86,0.00,,,0.18,0.00,VWS V14.00,2013-05-27 01:02:00,
2013-05-26 21:07:00,42.2,38.3,30.05,NNE,18,2.0,3.0,86,0.00,,,0.18,0.00,VWS V14.00,2013-05-27 01:07:00,
2013-05-26 21:12:00,41.8,38.2,30.05,NNE,18,0.0,3.0,87,0.00,,,0.18,0.00,VWS V14.00,2013-05-27 01:12:00,
2013-05-26 21:17:00,41.4,37.8,30.05,NNE,18,0.0,0.0,87,0.00,,,0.18,0.00,VWS V14.00,2013-05-27 01:17:00,
2013-05-26 21:22:00,41.1,37.8,30.05,NNE,18,0.0,0.0,88,0.00,,,0.18,0.00,VWS V14.00,2013-05-27 01:22:00,
2013-05-26 21:27:00,40.9,37.6,30.06,NNE,18,0.0,2.0,88,0.00,,,0.18,0.00,VWS V14.00,2013-05-27 01:27:00,
2013-05-26 21:32:00,40.6,37.3,30.06,NNE,18,1.0,2.0,88,0.00,,,0.18,0.00,VWS V14.00,2013-05-27 01:32:00,
2013-05-26 21:37:00,40.4,37.1,30.06,NNE,18,2.0,3.0,88,0.00,,,0.18,0.00,VWS V14.00,2013-05-27 01:37:00,
2013-05-26 21:42:00,40.1,37.1,30.06,NNE,18,2.0,3.0,89,0.00,,,0.18,0.00,VWS V14.00,2013-05-27 01:42:00,
2013-05-26 21:47:00,39.9,36.9,30.06,NNE,18,2.0,3.0,89,0.00,,,0.18,0.00,VWS V14.00,2013-05-27 01:47:00,
2013-05-26 21:52:00,39.6,36.6,30.06,NNE,18,2.0,3.0,89,0.00,,,0.18,0.00,VWS V14.00,2013-05-27 01:52:00,
2013-05-26 21:57:00,39.4,36.4,30.06,NNE,18,2.0,3.0,89,0.00,,,0.18,0.00,VWS V14.00,2013-05-27 01:57:00,
2013-05-26 22:03:00,39.3,36.3,30.06,NNE,18,2.0,3.0,89,0.00,,,0.18,0.00,VWS V14.00,2013-05-27 02:03:00,
2013-05-26 22:08:00,39.1,36.4,30.06,NNE,18,0.0,3.0,90,0.00,,,0.18,0.00,VWS V14.00,2013-05-27 02:08:00,
2013-05-26 22:12:00,38.9,36.2,30.06,NNE,18,3.0,3.0,90,0.00,,,0.18,0.00,VWS V14.00,2013-05-27 02:12:00,
2013-05-26 22:18:00,38.8,36.1,30.06,NNE,18,3.0,3.0,90,0.00,,,0.18,0.00,VWS V14.00,2013-05-27 02:18:00,
2013-05-26 22:23:00,38.6,35.9,30.06,NNE,18,3.0,3.0,90,0.00,,,0.18,0.00,VWS V14.00,2013-05-27 02:23:00,
2013-05-26 22:28:00,38.4,35.7,30.06,NNE,18,2.0,3.0,90,0.00,,,0.18,0.00,VWS V14.00,2013-05-27 02:28:00,
2013-05-26 22:33:00,38.3,35.6,30.06,NNE,18,0.0,1.0,90,0.00,,,0.18,0.00,VWS V14.00,2013-05-27 02:33:00,
2013-05-26 22:38:00,38.1,35.4,30.06,NNE,18,2.0,4.0,90,0.00,,,0.18,0.00,VWS V14.00,2013-05-27 02:38:00,
2013-05-26 22:43:00,38.0,35.3,30.06,NNE,18,2.0,3.0,90,0.00,,,0.18,0.00,VWS V14.00,2013-05-27 02:43:00,
2013-05-26 22:48:00,37.9,35.5,30.06,NNE,18,2.0,4.0,91,0.00,,,0.18,0.00,VWS V14.00,2013-05-27 02:48:00,
2013-05-26 22:53:00,37.8,35.4,30.06,NNE,18,3.0,3.0,91,0.00,,,0.18,0.00,VWS V14.00,2013-05-27 02:53:00,
2013-05-26 22:58:00,37.7,35.3,30.06,NNE,18,3.0,3.0,91,0.00,,,0.18,0.00,VWS V14.00,2013-05-27 02:58:00,
2013-05-26 23:03:00,37.7,35.3,30.06,NNE,18,3.0,4.0,91,0.00,,,0.18,0.00,VWS V14.00,2013-05-27 03:03:00,
2013-05-26 23:08:00,37.5,35.1,30.06,NNE,18,3.0,4.0,91,0.00,,,0.18,0.00,VWS V14.00,2013-05-27 03:08:00,
2013-05-26 23:13:00,37.4,35.0,30.06,NNE,17,2.0,4.0,91,0.00,,,0.18,0.00,VWS V14.00,2013-05-27 03:13:00,
2013-05-26 23:18:00,37.4,35.0,30.06,North,9,4.0,5.0,91,0.00,,,0.18,0.00,VWS V14.00,2013-05-27 03:18:00,
2013-05-26 23:23:00,37.3,34.9,30.06,North,9,3.0,3.0,91,0.00,,,0.18,0.00,VWS V14.00,2013-05-27 03:23:00,
2013-05-26 23:28:00,37.2,34.8,30.06,North,9,3.0,3.0,91,0.00,,,0.18,0.00,VWS V14.00,2013-05-27 03:28:00,
2013-05-26 23:33:00,37.0,34.6,30.06,North,9,3.0,4.0,91,0.00,,,0.18,0.00,VWS V14.00,2013-05-27 03:33:00,
2013-05-26 23:38:00,37.0,34.6,30.05,North,9,2.0,3.0,91,0.00,,,0.18,0.00,VWS V14.00,2013-05-27 03:38:00,
2013-05-26 23:43:00,36.8,34.7,30.05,North,9,2.0,3.0,92,0.00,,,0.18,0.00,VWS V14.00,2013-05-27 03:43:00,
2013-05-26 23:48:00,36.8,34.4,30.05,North,9,2.0,2.0,91,0.00,,,0.18,0.00,VWS V14.00,2013-05-27 03:48:00,
2013-05-26 23:53:00,36.7,34.6,30.05,North,9,2.0,3.0,92,0.00,,,0.18,0.00,VWS V14.00,2013-05-27 03:53:00,
2013-05-26 23:58:00,36.7,34.6,30.05,North,5,2.0,5.0,92,0.00,,,0.18,0.00,VWS V14.00,2013-05-27 03:58:00,